This is the latest recevied weather packets stored in our database for station/object VE2CSM-13. If no packets are shown the sender has not sent any weather packets the latest 10 day(s).
| Time | Temp. | Humidity | Pressure | Rain* | Wind** | Luminosity | Snow |
|---|---|---|---|---|---|---|---|
| 1777596902 | 7.22° C | 94% | 1017.6 hPa | 1.52 mm | - | - | - |
| 1777594146 | 8.33° C | 94% | 1017.1 hPa | 2.03 mm | - | - | - |
| 1777590562 | 8.89° C | 94% | 1016.9 hPa | 1.27 mm | - | - | - |
| 1777586946 | 8.89° C | 94% | 1016.3 hPa | 1.78 mm | - | - | - |
| 1777583346 | 9.44° C | 94% | 1016 hPa | 2.54 mm | - | - | - |
| 1777579746 | 10° C | 94% | 1015.9 hPa | 1.02 mm | - | - | - |
| 1777576146 | 10° C | 93% | 1016 hPa | 1.52 mm | - | - | - |
| 1777572552 | 10° C | 91% | 1016 hPa | 0.76 mm | - | - | - |
| 1777568946 | 10° C | 89% | 1015.9 hPa | 0 mm | - | - | - |
| 1777565354 | 9.44° C | 90% | 1015.9 hPa | 0.25 mm | - | - | - |
| 1777561751 | 8.89° C | 90% | 1016.2 hPa | 1.52 mm | - | - | - |
| 1777558150 | 8.89° C | 89% | 1016.1 hPa | 1.27 mm | - | - | - |
| 1777556360 | 9.44° C | 86% | 1016 hPa | 0 mm | - | - | - |
| 1777554550 | 9.44° C | 86% | 1016.3 hPa | 0 mm | - | - | - |
| 1777550950 | 8.89° C | 87% | 1016.6 hPa | 0.51 mm | - | - | - |
| 1777547357 | 9.44° C | 82% | 1016.8 hPa | 0.25 mm | - | - | - |
| 1777543753 | 10° C | 81% | 1016.4 hPa | 0 mm | - | - | - |
| 1777540152 | 10° C | 76% | 1016.6 hPa | 0 mm | - | - | - |
| 1777538226 | 10.56° C | 76% | 1016.8 hPa | 0 mm | - | - | - |
| 1777536306 | 10.56° C | 76% | 1016.9 hPa | 0 mm | - | - | - |
| 1777534386 | 10.56° C | 76% | 1017.3 hPa | 0 mm | - | - | - |
| 1777532466 | 11.11° C | 75% | 1017.2 hPa | 0 mm | - | - | - |
| 1777531507 | 11.11° C | 75% | 1017.2 hPa | 0 mm | - | - | - |
| 1777530546 | 11.11° C | 75% | 1017.6 hPa | 0 mm | - | - | - |
| 1777530066 | 11.11° C | 75% | 1017.3 hPa | 0 mm | - | - | - |
* Rain latest hour (hover to see other rain measurements)
** Current wind speed in m/s (hover to see current wind gust speed)